Regional Weather Roundup
Issued by NWS

Home | Current Version | Previous Version | Text Only | Print | Product List | Glossary On
Versions: 1 2 3 4 5 6 7 8 9 10 11 12 13 14 15 16 17 18 19 20 21 22 23 24 25 26 27 28 29 30 31 32 33 34 35 36 37 38 39 40 41 42 43 44 45 46 47 48 49 50
000
ASUS44 KOUN 201610
RWROK

WEATHER ROUNDUP FOR OKLAHOMA
NATIONAL WEATHER SERVICE NORMAN OK
1000 AM CST TUE FEB 20 2018

NOTE: "FAIR" INDICATES FEW OR NO CLOUDS BELOW 12,000 FEET WITH NO
      SIGNIFICANT WEATHER AND/OR OBSTRUCTIONS TO VISIBILITY.

OKZ001>007-009>012-014-015-017-201700-
NORTHWEST OKLAHOMA AND THE PANHANDLE

CITY           SKY/WX    TMP DP  RH WIND       PRES   REMARKS
GAGE           CLOUDY    19  16  88 N21G28    30.06R WCI   3
GUYMON         CLOUDY    19   7  59 N17       30.06R WCI   4
ENID/WOODRING  CLOUDY    25  25 100 N14G22    30.07R FOG     WCI  13
$$

OKZ016-021>023-033>039-044-045-201700-
SOUTHWEST OKLAHOMA

CITY           SKY/WX    TMP DP  RH WIND       PRES   REMARKS
LAWTON/REGL    CLOUDY    40  36  86 N31G40    29.92R WCI  28
LAWTON/FT SILL LGT RAIN  37  37 100 N29G39    29.94R WCI  25
FREDERICK      CLOUDY    41  36  82 N31G38    29.88R WCI  30
CLINTON        CLOUDY    23  21  92 N29G41    30.00R WCI   6
HOBART         CLOUDY    28  26  92 N28G33    30.02R FOG     WCI  13
ALTUS AFB      CLOUDY    33  29  86 N25G35    29.97R WCI  19
$$

OKZ018>020-024>031-201700-
CENTRAL OKLAHOMA

CITY           SKY/WX    TMP DP  RH WIND       PRES   REMARKS
OKLAHOMA CITY  FRZ RAIN  30  29  96 N28G35    30.00R VSB 1   WCI  15
OKC/WILEY POST FRZ RAIN  29  28  96 NW22G31   30.02R FOG     WCI  15
OKC/TINKER AFB TSTM      32  30  93 N21       29.98R FOG     WCI  20
STILLWATER     FRZ RAIN  30  27  88 N20G29    30.02R FOG     WCI  17
GUTHRIE        FRZ RAIN  28  26  92 N16G30    30.05R FOG     WCI  16
$$

OKZ008-013-054>072-201700-
NORTHEAST OKLAHOMA

CITY           SKY/WX    TMP DP  RH WIND       PRES   REMARKS
TULSA          CLOUDY    40  39  97 N18       29.94R WCI  31
TULSA/JONES    LGT RAIN  44  41  89 VRB5G20   29.96R
PONCA CITY     CLOUDY    27  23  85 N14       30.07R WCI  16
BARTLESVILLE   RAIN      34  32  92 NW6       30.01R FOG     WCI  29
MUSKOGEE       LGT RAIN  69  61  75 S20G32    29.88F
$$

OKZ032-040>043-046>053-073>077-201700-
SOUTH CENTRAL/SOUTHEAST OKLAHOMA

CITY           SKY/WX    TMP DP  RH WIND       PRES   REMARKS
ARDMORE/DWNTWN TSTM      63  61  94 S13G20    29.90R
MCALESTER      CLOUDY    67  63  87 S15G29    29.89S
$$





USA.gov is the U.S. government's official web portal to all federal, state and local government web resources and services.